#timestamp,LO_Frequency,Hit,StdDev 
1609450535.2,286046989.6,P
1609450555.0,286046991.5,P
1609450555.9,286046991.5,P
1609450575.8,286046988.8,Y
1609450595.6,286046998.4,P
1609450615.4,286046999.6,N
1609450635.3,286047001.1,N
1609450655.1,286047002.8,N
1609450675.8,286047002.2,N
1609450695.7,286047003.4,N
1609450715.5,286047002.6,N
1609450735.4,286047001.1,N
1609450755.2,286046999.1,N
1609450775.0,286046996.9,N
1609450775.9,286046996.9,N
1609450795.8,286046994.9,N
1609450815.6,286046996.9,N
1609450835.4,286046996.7,N
1609450855.3,286046994.9,N
1609450875.1,286046995.2,N
1609450895.9,286046996.2,N
1609450915.7,286046996.2,N
1609450935.5,286046996.3,N
1609450955.4,286046993.5,N
1609450975.2,286046993.6,N
1609450995.0,286046994.5,N
1609450996.0,286046994.5,N
1609451015.8,286046994.8,N
1609451035.6,286046992.0,N
1609451055.5,286046996.4,N
1609451075.3,286046993.7,N
1609451095.1,286046996.2,N
1609451115.9,286046993.7,N
1609451135.7,286046995.8,N
1609451155.6,286046997.4,N
1609451175.4,286046999.4,N
1609451195.2,286046998.6,N
1609451215.1,286046998.1,N
1609451216.0,286046998.1,N
1609451235.8,286046999.8,N
1609451255.6,286047000.5,N
1609451275.5,286046999.1,N
1609451295.3,286046999.0,N
1609451315.2,286046998.9,N
1609451335.9,286047000.8,N
1609451355.7,286046999.1,N
1609451375.6,286046996.7,N
1609451395.4,286046993.5,N
1609451415.2,286046993.1,N
1609451435.1,286046991.7,Y
1609451436.0,286046991.7,P
1609451455.8,286046995.6,N
1609451475.7,286046997.7,N
1609451495.5,286046999.5,N
1609451515.3,286046999.0,N
1609451535.2,286046996.9,N
1609451555.0,286046998.0,N
1609451555.9,286046998.0,N
1609451575.7,286046995.4,N
1609451595.6,286046996.5,N
1609451615.4,286047001.2,N
1609451635.3,286047000.0,N
1609451655.1,286047001.8,N
1609451656.0,286047001.8,N
1609451675.8,286047005.9,N
1609451695.7,286047005.9,N
1609451715.5,286047005.8,N
1609451735.3,286047003.0,N
1609451755.2,286047004.3,N
1609451775.0,286047001.9,N
1609451775.9,286047001.9,N
1609451795.8,286047001.1,N
1609451815.6,286046999.0,N
1609451835.4,286046998.6,N
1609451855.3,286047001.1,N
1609451875.1,286047001.1,N
1609451895.9,286046999.1,N
1609451915.7,286046995.7,N
1609451935.5,286046997.4,N
1609451955.4,286046994.9,N
1609452005.2,286046993.6,E
